Simultaneous Nadir Overpasses (SNOs) Predictions

Prediction of SNOs between LANDSAT-8 and NOAA-19 Satellite Orbit:

Table of predicted SNOs for the next 14.0 days since TLE Epoch: 6/23/2017
Index Date (LANDSAT-8) Time (LANDSAT-8) Lat,Lon (LANDSAT-8) SZA (LANDSAT-8 ) Date (NOAA-19) Time (NOAA-19) Lat,Lon (NOAA-19) SZA (NOAA-19 ) Distance(km) Time Diff (sec)
1 06/24/2017 22:29:23 76.29,-148.22 53.00 06/24/2017 22:28:36 76.27,-148.21 52.97 2.53 47
2 06/24/2017 23:18:52 -76.21, 19.16 127.09 06/24/2017 23:19:34 -76.22, 19.24 127.07 2.20 42
3 06/27/2017 04:03:09 -76.27, -51.73 126.96 06/27/2017 04:02:23 -76.28, -51.63 126.95 3.01 46
4 06/27/2017 04:52:35 76.25, 115.86 53.03 06/27/2017 04:53:25 76.24, 115.76 53.02 3.02 50
5 06/29/2017 09:36:52 76.30, 44.95 53.19 06/29/2017 09:36:14 76.28, 44.96 53.16 2.31 38
6 06/29/2017 10:26:21 -76.23,-147.65 126.90 06/29/2017 10:27:11 -76.23,-147.59 126.88 1.69 50
7 07/01/2017 15:10:38 -76.28, 141.44 126.70 07/01/2017 15:10:00 -76.30, 141.52 126.69 3.06 38
8 07/01/2017 16:00:04 76.26, -50.98 53.28 07/01/2017 16:01:03 76.26, -51.09 53.29 2.80 59
9 07/03/2017 20:44:21 76.31,-121.91 53.50 07/03/2017 20:43:52 76.31,-121.91 53.50 0.41 29
10 07/03/2017 21:33:50 -76.24, 45.51 126.58 07/03/2017 21:34:48 -76.26, 45.55 126.55 2.51 58
11 07/06/2017 02:18:06 -76.33, -25.26 126.27 07/06/2017 02:17:37 -76.33, -25.36 126.28 2.74 29




NCC Satellite Simultaneous Nadir Overpasses (SNOs) Prediction Service
